THOR ABLESTAR DEB, 121

Orbit data source: Space-Track

THOR ABLESTAR DEB, 121 is space debris in LEO originally from a launch on Thu, 29 Jun 1961 UTC launched from the Air Force Eastern Test Range (AFETR). Debris objects in space refer to the collection of defunct objects orbiting the Earth. Examples of debris include non-operational satellites, rocket bodies, and fragments generated from explosions, collisions, or faulty payload assembly.

Loading next visibility...
Identifier
121, 1961-015F
Orbit
LEO
Country
Flag of USUS
Related business
Manufacturer
Unknown
Mission
Spacecraft
Bus & Motor
Unknown
Mass
Unknown
Launch date (UTC)
1961-06-29 (65 years ago)
Launch vehicle
Unknown
Launch site
Air Force Eastern Test Range (AFETR)
Object type
Payload
Rocket body
Debris
Shape & HBR
Unknown shape, 0.4 m
Radar Cross Section
Medium (>0.1 m² and <1 m²)

Expand to show TLE details & history
Last TLE update: 15 hours ago

TLE from 15 hours ago
0 THOR ABLESTAR DEB
1 00121U 61015F   26037.31421253  .00000042  00000-0  79128-4 0  9993
2 00121  66.7489   6.8350 0085936  97.1048 263.9817 14.00205853308047
Epoch: 2026-02-06T07:32Z
TLE epoch observation values (Epoch: 2026-02-06T07:32:27.962Z)
Latitude
Longitude
117.26463°
Altitude
902.247 km
Speed
7.398 km/s
True Right ascension
00h 27m 20s
True Declination
0° 00' 00"
Sunlit
Object was in daylight at epoch
Visualization orbit readout
Latitude
Unknown
Longitude
Unknown
Altitude
Unknown
Speed
Unknown
Apparent Right ascension
Unknown
Apparent Declination
Unknown
Sunlit
N/A
Visualization observer readout
Local Sidereal Time
01:07:09
Azimuth
Unknown
Elevation
Unknown
Doppler factor
Unknown
Orbital elements
Apogee altitude
953.946 km
Perigee altitude
829.002 km
Semi-major axis
7,269.611 km
Eccentricity
0.00859
Inclination
66.7489°
RAAN
6.835°
Arg. of periapsis
97.1048°
True anomaly
263.00352°
Mean anomaly
263.9817°
Eccentric anomaly
263.4925°
Mean motion
3.50168 °/min
Orbital period
102.81 mins
BSTAR
0.000079128
Loading maneuver chart data...
Computing Atmospheric mass density...

Documentation

Showing up to 5 results
|